AAL2782 KIND-KDFW

Flight info

Callsign AAL2782
Flight time N/A
Altitude 36000
Route ROCKY1 STL KK45I FSM KOMMA RRNET SEEVR4
Aircraft B738/M-SDE2E3FGHIRWXY/LB1

Departure

Time 2026-05-04 20:41
Airport Indianapolis International Airport (KIND)

Arrival

Time N/A
Airport Dallas Fort Worth International Airport (KDFW)
Time Latitude Longitude Altitude Speed Heading
2026-05-04 20:11 39.71693 -86.29707 780 ft 0 kts 303°
2026-05-04 20:33 39.71688 -86.29696 780 ft 4 kts 303°
2026-05-04 20:33 39.71673 -86.29667 780 ft 4 kts 303°
2026-05-04 20:33 39.71660 -86.29642 780 ft 0 kts 303°
2026-05-04 20:35 39.71664 -86.29645 780 ft 2 kts 323°
2026-05-04 20:35 39.71691 -86.29614 780 ft 9 kts 54°
2026-05-04 20:36 39.71737 -86.29545 780 ft 7 kts 41°
2026-05-04 20:36 39.71740 -86.29542 780 ft 0 kts 41°
2026-05-04 20:38 39.71742 -86.29539 780 ft 2 kts 41°
2026-05-04 20:38 39.71789 -86.29488 780 ft 15 kts 38°
2026-05-04 20:38 39.71839 -86.29363 780 ft 20 kts 67°
2026-05-04 20:38 39.71948 -86.29297 780 ft 20 kts 319°
2026-05-04 20:39 39.72054 -86.29436 780 ft 25 kts 315°
2026-05-04 20:39 39.72182 -86.29603 780 ft 26 kts 314°
2026-05-04 20:39 39.72316 -86.29648 780 ft 23 kts 45°
2026-05-04 20:39 39.72431 -86.29501 780 ft 25 kts 45°
2026-05-04 20:40 39.72558 -86.29338 780 ft 25 kts 44°
2026-05-04 20:40 39.72676 -86.29260 780 ft 19 kts 320°
2026-05-04 20:40 39.72740 -86.29392 778 ft 18 kts 253°
2026-05-04 20:40 39.72597 -86.29586 777 ft 58 kts 224°
2026-05-04 20:41 39.72144 -86.30164 780 ft 123 kts 224°
2026-05-04 20:41 39.71396 -86.31114 835 ft 170 kts 224°
2026-05-04 20:41 39.70534 -86.32221 1527 ft 173 kts 222°
2026-05-04 20:41 39.69637 -86.33334 2265 ft 181 kts 223°
2026-05-04 20:42 39.68692 -86.34592 2657 ft 210 kts 234°
2026-05-04 20:42 39.68187 -86.36440 3172 ft 221 kts 254°
2026-05-04 20:42 39.67827 -86.38367 3945 ft 216 kts 254°
2026-05-04 20:42 39.67448 -86.40251 4637 ft 217 kts 253°
2026-05-04 20:43 39.67053 -86.42161 5198 ft 222 kts 253°
2026-05-04 20:43 39.66653 -86.44083 5916 ft 218 kts 253°
2026-05-04 20:43 39.66253 -86.45984 6456 ft 221 kts 253°
2026-05-04 20:43 39.65844 -86.47912 7074 ft 221 kts 253°
2026-05-04 20:44 39.65433 -86.49835 7706 ft 221 kts 253°
2026-05-04 20:44 39.65020 -86.51759 8286 ft 222 kts 253°
2026-05-04 20:44 39.64602 -86.53704 8836 ft 224 kts 253°
2026-05-04 20:44 39.64184 -86.55634 9468 ft 222 kts 253°
2026-05-04 20:45 39.63765 -86.57573 9997 ft 224 kts 254°
2026-05-04 20:45 39.63338 -86.59537 10468 ft 231 kts 254°
2026-05-04 20:45 39.62884 -86.61623 10653 ft 251 kts 254°
2026-05-04 20:45 39.62384 -86.63920 10844 ft 276 kts 254°
2026-05-04 20:46 39.61841 -86.66408 11025 ft 298 kts 254°
2026-05-04 20:46 39.61257 -86.69085 11280 ft 316 kts 254°
2026-05-04 20:46 39.60646 -86.71884 11684 ft 328 kts 254°
2026-05-04 20:46 39.60019 -86.74744 12331 ft 331 kts 254°